Location: Mount Cross
(36.6390°N, 79.4878°W)
Time: 15:22:00
(UTC+00:00)

Tiros 1 - Pass Details

Date: 05 April 2023
Orbit: 627 x 661 km, 48.4° (Epoch: 02 June)

Event Time Altitude Azimuth Distance (km) Brightness Sun altitude
Exits shadow 09:38:50 - 310° (NW) 2,336 9.7 -16.3°
Reaches altitude 10° 09:39:45 10° 317° (NW) 2,073 9.5 -16.1°
Maximum altitude 09:43:16 20° 4° (N) 1,521 9.3 -15.5°
Drops below altitude 10° 09:46:48 10° 52° (NE) 2,077 10.9 -14.8°
Sets 09:49:43 0° 69° (ENE) 2,988 12.6 -14.2°
